Gainesville, GA

5:31 AM EST on December 10, 2019 (GMT -0500)
Gilmer Memorial

Weather History for KGVL - August, 2019

Change the Weather History Date:

Saturday, August 10, 2019

  Actual Average Record
Temperature  
Mean Temperature 83 °F 79 °F  
Max Temperature 92 °F 88 °F 100 °F (2007)
Min Temperature 74 °F 70 °F 57 °F (1989)
Cooling Degree Days 18 14  
Month to date cooling degree days 145 140  
Year to date cooling degree days 1218 1062  
Since 1 June cooling degree days 882 887  
Growing Degree Days 33 (Base 50)    
Moisture  
Dew Point 73 °F    
Average Humidity 73    
Maximum Humidity 94    
Minimum Humidity 52    
Precipitation  
Precipitation 0.00 in 0.16 in 3.88 in (1970)
Month to date precipitation 1.38 1.67  
Year to date precipitation 36.22 33.49  
Sea Level Pressure  
Sea Level Pressure 29.92 in    
Wind  
Wind Speed 5 mph (WNW)    
Max Wind Speed 13 mph    
Max Gust Speed 18 mph    
Visibility 10 miles    
Events      
T = Trace of Precipitation, MM = Missing Value Source: NWS Daily Summary

Daily Weather History Graph

Daily Weather History Graph

Search for Another Location

Airport or City:

Astronomy

Aug. 10, 2019 Rise Set
Actual Time 6:52 AM EDT 8:28 PM EDT
Civil Twilight 6:25 AM EDT 8:55 PM EDT
Nautical Twilight 5:53 AM EDT 9:27 PM EDT
Astronomical Twilight 5:19 AM EDT 10:01 PM EDT
Moon 5:04 PM EDT 2:32 AM EDT
Length of Visible Light 14h 29m
Length of Day
13h 35m
Waxing Gibbous, 79% of the Moon is Illuminated
Aug 10
Waxing Gibbous
Aug 15
Full
Aug 23
Last Quarter
Aug 30
New
Sep 5
First Quarter

Hourly Weather History & Observations

Time (EDT) Temp. Heat Index Dew Point Humidity Pressure Visibility Wind Dir Wind Speed Gust Speed Precip Events Conditions
12:53 AM 79.0 °F - 72.0 °F 79% 29.93 in 10.0 mi NNW 4.6 mph - N/A   Clear
1:53 AM 78.1 °F - 72.0 °F 81% 29.93 in 10.0 mi NW 5.8 mph - N/A   Clear
2:53 AM 77.0 °F - 72.0 °F 84% 29.91 in 10.0 mi North 3.5 mph - N/A   Clear
3:53 AM 75.9 °F - 72.0 °F 87% 29.91 in 10.0 mi Calm Calm - N/A   Clear
4:53 AM 75.0 °F - 72.0 °F 90% 29.91 in 10.0 mi Calm Calm - N/A   Clear
5:53 AM 75.0 °F - 73.0 °F 94% 29.92 in 10.0 mi NW 3.5 mph - N/A   Clear
6:53 AM 75.0 °F - 72.0 °F 90% 29.93 in 10.0 mi West 3.5 mph - N/A   Clear
7:53 AM 75.9 °F - 73.0 °F 91% 29.94 in 10.0 mi WNW 5.8 mph - N/A   Clear
8:53 AM 79.0 °F - 72.0 °F 79% 29.96 in 10.0 mi WNW 4.6 mph - N/A   Clear
9:53 AM 81.0 °F 85.8 °F 73.0 °F 77% 29.96 in 10.0 mi WSW 5.8 mph - N/A   Clear
10:53 AM 84.0 °F 91.2 °F 73.9 °F 72% 29.97 in 10.0 mi West 4.6 mph - N/A   Clear
11:53 AM 84.9 °F 91.4 °F 73.0 °F 67% 29.97 in 10.0 mi West 5.8 mph - N/A   Overcast
12:53 PM 89.1 °F 98.0 °F 73.9 °F 61% 29.96 in 10.0 mi SW 6.9 mph - N/A   Mostly Cloudy
1:53 PM 89.1 °F 96.0 °F 72.0 °F 57% 29.93 in 10.0 mi West 8.1 mph - N/A   Scattered Clouds
2:53 PM 90.0 °F 96.9 °F 72.0 °F 55% 29.91 in 10.0 mi West 10.4 mph 17.3 mph N/A   Scattered Clouds
3:53 PM 91.9 °F 98.4 °F 71.1 °F 50% 29.88 in 10.0 mi West 9.2 mph - N/A   Scattered Clouds
4:53 PM 90.0 °F 96.4 °F 71.1 °F 54% 29.88 in 10.0 mi NNE 8.1 mph - N/A   Mostly Cloudy
5:53 PM 88.0 °F 95.6 °F 73.0 °F 61% 29.88 in 10.0 mi West 10.4 mph - N/A   Mostly Cloudy
6:53 PM 88.0 °F 95.6 °F 73.0 °F 61% 29.88 in 10.0 mi West 8.1 mph - N/A   Clear
7:53 PM 86.0 °F 93.0 °F 73.0 °F 65% 29.89 in 10.0 mi SW 5.8 mph - N/A   Clear
8:53 PM 82.0 °F 87.9 °F 73.9 °F 76% 29.91 in 10.0 mi SW 3.5 mph - N/A   Clear
9:53 PM 81.0 °F 86.2 °F 73.9 °F 79% 29.93 in 10.0 mi WNW 4.6 mph - N/A   Clear
10:53 PM 80.1 °F 84.2 °F 73.0 °F 79% 29.94 in 10.0 mi West 4.6 mph - N/A   Partly Cloudy
11:53 PM 79.0 °F - 73.9 °F 84% 29.93 in 10.0 mi NW 3.5 mph - N/A   Partly Cloudy